Regional Weather Roundup
Issued by NWS

Home | Current Version | Previous Version | Graphics & Text | Print | Product List | Glossary On
Versions: 1 2 3 4 5 6 7 8 9 10 11 12 13 14 15 16 17 18 19 20 21 22 23 24 25 26 27 28 29 30 31 32 33 34 35 36 37 38 39 40 41 42 43 44 45 46 47 48 49 50
000
ASUS43 KMPX 221801
RWRMN
WEATHER ROUNDUP FOR MINNESOTA
NATIONAL WEATHER SERVICE TWIN CITIES/CHANHASSEN MN
1200 PM CST SUN JAN 22 2017


NOTE: "FAIR" INDICATES FEW OR NO CLOUDS BELOW 12,000 FEET WITH NO
SIGNIFICANT WEATHER AND/OR OBSTRUCTIONS TO VISIBILITY. N/A MEANS
CURRENT SKY AND/OR WEATHER CONDITIONS ARE NOT AVAILABLE.

MNZ060>063-068>070-221900-
   Twin Cities Metro

CITY           SKY/WX    TMP DP  RH WIND       PRES   REMARKS
TWIN CITIES    CLOUDY    39  34  82 NW7       29.72S
6HR MIN TEMP:  35; 6HR MAX TEMP:  39;

ST PAUL        CLOUDY    39  37  92 NW7       29.72F
CRYSTAL        CLOUDY    38  34  85 NW7       29.71S
BLAINE         CLOUDY    39  39 100 W6        29.71S
LAKEVILLE      CLOUDY    36  36 100 NW8       29.71S
EDEN PRAIRIE   CLOUDY    38  34  85 NW9       29.71S
6HR MIN TEMP:  35; 6HR MAX TEMP:  38;

SOUTH ST PAUL  CLOUDY    38  36  91 NW6       29.71S
LAKE ELMO      CLOUDY    36  36 100 N6        29.71F
$$
MNZ001>005-007-008-013>017-022>024-027-028-221900-
   Northwest Minnesota

CITY           SKY/WX    TMP DP  RH WIND       PRES   REMARKS
BEMIDJI        CLOUDY    33  33 100 CALM      29.71S
HALLOCK        FOG       34  34 100 SW5       29.72S VSB<1/4 WCI  30
ROSEAU         CLOUDY    36  30  80 CALM      29.72S
WARROAD        FOG       34  30  86 CALM      29.72S VSB 1/4
THIEF RVR FALL FOG       34  33  96 W6        29.73S VSB 1/4 WCI  29
CROOKSTON      CLOUDY    34  34 100 W6        29.75S FOG     WCI  29
FOSSTON        FOG       34  34 100 SW5       29.73R VSB<1/4 WCI  30
DETROIT LAKES  FOG       34  34 100 W7        29.74S VSB 1/4 WCI  28
MOORHEAD       CLOUDY    32  30  93 W8        29.76F FOG     WCI  25
PARK RAPIDS    CLOUDY    36  32  85 W5        29.70S
MAHNOMEN       FOG       32  32  99 W7        29.72S VSB 1/4 WCI  26
$$
MNZ006-009>011-018-025>026-221900-
   North Central Minnesota

CITY           SKY/WX    TMP DP  RH WIND       PRES   REMARKS
BAUDETTE       CLOUDY    36  33  89 CALM      29.70S
FLAG ISLAND    CLOUDY    34  34 100 CALM      29.70S
INTL FALLS     CLOUDY    37  35  92 CALM      29.69S FOG
6HR MIN TEMP:  33; 6HR MAX TEMP:  37;

WASKISH        CLOUDY    36  36 100 CALM      29.71S FOG
BIG FORK       CLOUDY    37  36  93 CALM      29.70S
LONGVILLE      CLOUDY    36  36 100 CALM      29.70F
GRAND RAPIDS   FOG       37  36  96 W5        29.71S VSB 1/2
CRANE LAKE     CLOUDY    34  32  93 CALM      29.71S
ORR            LGT RAIN  34  32  93 CALM      29.67S
COOK           LGT SNOW  32  32 100 CALM      29.69S
WALKER         CLOUDY    33  33  99 W5        29.71S WCI  29
$$
MNZ012-019>021-037-221900-
   Northeast Minnesota

CITY           SKY/WX    TMP DP  RH WIND       PRES   REMARKS
DULUTH         CLOUDY    36  35  96 NW5       29.66F
6HR MIN TEMP:  34; 6HR MAX TEMP:  36; 6HR PCP: TRACE;

ELY            CLOUDY    34  34 100 CALM      29.67S FOG
HIBBING        CLOUDY    34  34 100 N3        29.68S
EVELETH        LGT RAIN  37  35  93 CALM      29.69F
DULUTH HARBOR  CLOUDY    36  36 100 CALM      29.70S
TWO HARBORS    CLOUDY    39  34  81 CALM      29.65F
SILVER BAY     CLOUDY    37  36  93 CALM      29.66S FOG
GRAND MARAIS     N/A     40  34  79 CALM      29.67S
G MARAIS ARPRT CLOUDY    34  28  80 N6        29.64S WCI  29
$$
MNZ029>031-032-039>041-046>048-054>057-064-221900-
   West Central Minnesota

CITY           SKY/WX    TMP DP  RH WIND       PRES   REMARKS
FERGUS FALLS   FOG       32  32 100 W9        29.79F VSB<1/4 WCI  24
WHEATON        CLOUDY    36  36 100 W10       29.79F FOG
MORRIS         CLOUDY    34  32  93 NW12      29.75S FOG     WCI  25
ALEXANDRIA     FOG       33  33 100 W7        29.73F VSB 3/4 WCI  27
ELBOW LAKE     SNOW      32  32 100 NW10      29.75F VSB 1/4 WCI  23
WADENA         CLOUDY    36  36 100 W6        29.72S
GLENWOOD       FOG       34  34 100 NW8       29.74F VSB 1   WCI  27
APPLETON       CLOUDY    36  34  93 W10       29.76F
ORTONVILLE     CLOUDY    32  30  93 NW9       29.77S WCI  24
MADISON        CLOUDY    36  36 100 NW10      29.77S
WILLMAR        FOG       36  36 100 NW12      29.76S VSB 1
$$
MNZ033>034-036-042>043-049>051-058-059-221900-
   Central Minnesota

CITY           SKY/WX    TMP DP  RH WIND       PRES   REMARKS
ST CLOUD       CLOUDY    37  36  96 NW6       29.71F
6HR MIN TEMP:  33; 6HR MAX TEMP:  37;

SAUK CENTRE    CLOUDY    34  34 100 W8        29.73F FOG     WCI  27
PAYNESVILLE    CLOUDY    35  35 100 NW7       29.74S FOG     WCI  29
AITKIN         CLOUDY    39  34  81 CALM      29.69F
PINE RIVER     CLOUDY    36  36 100 CALM      29.74F
BRAINERD       CLOUDY    35  35 100 NW3       29.71F FOG
STAPLES        CLOUDY    36  36 100 W3        29.71F
LONG PRAIRIE   CLOUDY    34  34 100 W6        29.73S WCI  29
LITTLE FALLS   CLOUDY    36  34  93 NW3       29.72F
LITCHFIELD     CLOUDY    37  36  93 NW6       29.73F FOG
BUFFALO        CLOUDY    36  35  96 NW5       29.73F
MAPLE LAKE     CLOUDY    37  38 100 NW5       29.73F
HUTCHINSON     CLOUDY    36  36 100 NW6       29.74S
$$
MNZ037-044-045-052-053-221900-
   East Central Minnesota

CITY           SKY/WX    TMP DP  RH WIND       PRES   REMARKS
PRINCETON      CLOUDY    37  37 100 W3        29.72S
MORA           CLOUDY    36  36 100 W3        29.73S
CAMBRIDGE      CLOUDY    37  37 100 W3        29.70S FOG
RUSH CITY      CLOUDY    36  36 100 NW5       29.71S FOG
MOOSE LAKE     CLOUDY    36  34  93 W3        29.68S
HINCKLEY       CLOUDY    37  36  93 W3        29.69F
CLOQUET        CLOUDY    36  34  93 NW6       29.67F FOG
MCGREGOR       CLOUDY    36  36 100 NW3       29.70S
$$
MNZ071>073-080-081-089-090-097-098-221900-
   Southwest Minnesota

CITY           SKY/WX    TMP DP  RH WIND       PRES   REMARKS
MONTEVIDEO     CLOUDY    34  34 100 N8        29.77F FOG     WCI  27
GRANITE FALLS  CLOUDY    36  36 100 NW8       29.77F FOG
CANBY          CLOUDY    36  34  92 NW12      29.78S
MARSHALL       CLOUDY    36  33  89 N10       29.76F FOG
REDWOOD FALLS  CLOUDY    35  33  92 NW9       29.75S FOG     WCI  28
OLIVIA         CLOUDY    34  34 100 NW9       29.74F FOG     WCI  26
PIPESTONE      CLOUDY    34  34 100 NW7       29.76R FOG     WCI  28
WINDOM         CLOUDY    36  36 100 NW13      29.74S FOG
WORTHINGTON    CLOUDY    36  35  96 NW9       29.75S
JACKSON        FOG       34  34 100 NW13      29.74S VSB 3/4 WCI  25
TRACY          CLOUDY    37  37 100 N12       29.75F FOG
SLAYTON        CLOUDY    35  34  96 NW9       29.75S WCI  28
$$
MNZ065>067-074>077-082>085-091>093-221900-
   South Central Minnesota

CITY           SKY/WX    TMP DP  RH WIND       PRES   REMARKS
MANKATO        CLOUDY    35  35 100 NW9       29.73S FOG     WCI  28
NEW ULM        CLOUDY    36  36 100 NW9       29.74S FOG
ST JAMES       CLOUDY    36  36 100 NW13      29.75S FOG
FAIRMONT       CLOUDY    36  36 100 NW10      29.74S
GLENCOE        CLOUDY    37  37 100 NW5       29.72F
OWATONNA       CLOUDY    36  34  93 NW5       29.72R FOG
WASECA         FOG       34  34 100 NW7       29.74R VSB 1/2 WCI  28
ALBERT LEA     CLOUDY    36  36 100 NW6       29.71S FOG
$$
MNZ078>079-086>088-094>096-221900-
   Southeast Minnesota

CITY           SKY/WX    TMP DP  RH WIND       PRES   REMARKS
ROCHESTER      CLOUDY    35  35 100 NW8       29.68F FOG     WCI  29
6HR MIN TEMP:  32; 6HR MAX TEMP:  35;

RED WING       CLOUDY    37  36  93 W3        29.70S FOG
STANTON        CLOUDY    36  35  95 NW6       29.70S FOG
DODGE CENTER   CLOUDY    34  34 100 CALM      29.69S FOG
WINONA         CLOUDY    36  36 100 NW3       29.69F FOG
AUSTIN         CLOUDY    36  34  93 NW6       29.69F FOG
PRESTON        FOG       34  33  96 W5        29.68F VSB 3/4 WCI  30
$$
ABBREVIATIONS USED IN REMARKS
   TC - TEMPERATURES IN CELSIUS
  WCI - WIND CHILL INDEX
   HX - HEAT INDEX
  VSB - VISIBILITY
$$




USA.gov is the U.S. government's official web portal to all federal, state and local government web resources and services.